Change the Weather History Date:

Tuesday, December 23, 2014

  Actual Average Record
Temperature  
Mean Temperature 35 °F -  
Max Temperature 37 °F 24 °F 41 °F (1986)
Min Temperature 33 °F 6 °F -29 °F (1983)
Degree Days  
Heating Degree Days 30    
Moisture  
Dew Point 34 °F    
Average Humidity 93    
Maximum Humidity 100    
Minimum Humidity 87    
Precipitation  
Precipitation 0.00 in - - ()
Sea Level Pressure  
Sea Level Pressure 29.75 in    
Wind  
Wind Speed 12 mph (North)    
Max Wind Speed 18 mph    
Max Gust Speed 26 mph    
Visibility 7 miles    
Events Rain , Snow    
Averages and records for this station are not official NWS values.
T = Trace of Precipitation, MM = Missing Value Source: NWS Daily Summary

Daily Weather History Graph

Daily Weather History Graph

Search for Another Location

Airport or City:

Trip Planner

Search our weather history database for the weather conditions in past years. The results will help you decide how hot, cold, wet, or windy it might be!

Date:

Astronomy

Dec. 23, 2014 Rise Set
Actual Time 7:53 AM CST 4:40 PM CST
Civil Twilight 7:19 AM CST 5:14 PM CST
Nautical Twilight 6:42 AM CST 5:51 PM CST
Astronomical Twilight 6:06 AM CST 6:26 PM CST
Moon 8:53 AM CST (12/23) 7:01 PM CST (12/23)
Length of Visible Light 9h 54m
Length of Day
8h 47m
Waxing Crescent, 4% of the Moon is Illuminated
Dec 23
Waxing Crescent
Dec 28
First Quarter
Jan 4
Full
Jan 13
Last Quarter
Jan 20
New

Hourly Weather History & Observations

Time (CST) Temp. Windchill Dew Point Humidity Pressure Visibility Wind Dir Wind Speed Gust Speed Precip Events Conditions
12:13 AM 35.6 °F 28.0 °F 34.9 °F 97% 29.62 in 4.0 mi NE 10.4 mph - N/A   Overcast
12:33 AM 35.2 °F 27.6 °F 34.7 °F 98% 29.62 in 4.0 mi NE 10.4 mph - N/A   Overcast
12:53 AM 34.9 °F 27.1 °F 34.5 °F 99% 29.62 in 3.0 mi NE 10.4 mph - N/A   Light Drizzle
1:12 AM 34.9 °F 26.6 °F 34.3 °F 98% 29.62 in 3.0 mi NE 11.5 mph - N/A   Light Drizzle
1:33 AM 34.9 °F 26.6 °F 34.2 °F 97% 29.62 in 4.0 mi NE 11.5 mph - N/A   Overcast
1:49 AM 34.9 °F 26.2 °F 34.2 °F 97% 29.62 in 4.0 mi NNE 12.7 mph - N/A   Overcast
2:05 AM 33.8 °F 25.3 °F 33.8 °F 100% 29.62 in 4.0 mi NE 11.5 mph - N/A   Overcast
2:25 AM 33.8 °F 24.8 °F 33.8 °F 100% 29.63 in 4.0 mi NE 12.7 mph - N/A   Overcast
2:45 AM 33.8 °F 25.3 °F 33.8 °F 100% 29.63 in 4.0 mi NE 11.5 mph 17.3 mph N/A   Overcast
3:05 AM 33.8 °F 26.4 °F 33.8 °F 100% 29.63 in 4.0 mi NE 9.2 mph - N/A   Overcast
3:13 AM 34.7 °F 26.4 °F 33.8 °F 97% 29.63 in 4.0 mi NNE 11.5 mph 16.1 mph N/A   Overcast
3:33 AM 34.7 °F 25.9 °F 33.8 °F 97% 29.63 in 4.0 mi NNE 12.7 mph 18.4 mph N/A   Overcast
3:52 AM 34.7 °F 25.5 °F 33.8 °F 97% 29.63 in 5.0 mi NNE 13.8 mph - N/A   Overcast
4:13 AM 34.7 °F 26.9 °F 33.3 °F 94% 29.64 in 5.0 mi NNE 10.4 mph 17.3 mph N/A   Overcast
4:33 AM 34.7 °F 26.4 °F 33.3 °F 94% 29.63 in 5.0 mi North 11.5 mph 18.4 mph N/A   Overcast
4:52 AM 34.7 °F 25.9 °F 33.3 °F 94% 29.64 in 5.0 mi NNE 12.7 mph 17.3 mph N/A   Overcast
5:13 AM 34.9 °F 26.2 °F 33.3 °F 94% 29.64 in 5.0 mi North 12.7 mph 20.7 mph N/A   Overcast
5:32 AM 34.9 °F 26.2 °F 33.3 °F 94% 29.64 in 5.0 mi North 12.7 mph 18.4 mph N/A   Overcast
5:52 AM 34.9 °F 27.7 °F 33.1 °F 93% 29.65 in 7.0 mi North 9.2 mph 19.6 mph N/A   Overcast
6:13 AM 34.9 °F 27.1 °F 32.9 °F 92% 29.66 in 7.0 mi North 10.4 mph 18.4 mph N/A   Overcast
6:32 AM 34.9 °F 26.2 °F 33.1 °F 93% 29.66 in 7.0 mi North 12.7 mph 19.6 mph N/A   Overcast
6:52 AM 34.9 °F 26.6 °F 33.1 °F 93% 29.67 in 7.0 mi North 11.5 mph 16.1 mph N/A   Overcast
7:13 AM 35.1 °F 27.4 °F 33.3 °F 93% 29.68 in 7.0 mi North 10.4 mph 20.7 mph N/A   Overcast
7:32 AM 35.1 °F 27.4 °F 33.3 °F 93% 29.68 in 7.0 mi North 10.4 mph 19.6 mph N/A   Overcast
7:53 AM 35.2 °F 27.1 °F 33.1 °F 92% 29.69 in 7.0 mi North 11.5 mph 18.4 mph N/A   Overcast
8:12 AM 35.2 °F 27.6 °F 33.1 °F 92% 29.70 in 7.0 mi North 10.4 mph 19.6 mph N/A   Overcast
8:32 AM 35.2 °F 27.1 °F 33.3 °F 92% 29.70 in 7.0 mi North 11.5 mph 17.3 mph N/A Snow Light Snow
8:53 AM 35.2 °F 27.6 °F 33.4 °F 93% 29.71 in 5.0 mi North 10.4 mph 16.1 mph N/A Rain Light Rain
9:13 AM 35.2 °F 28.1 °F 33.8 °F 94% 29.72 in 5.0 mi North 9.2 mph - N/A Rain Light Rain
9:32 AM 35.2 °F 27.6 °F 33.8 °F 94% 29.73 in 5.0 mi North 10.4 mph 17.3 mph N/A Rain Light Rain
9:53 AM 35.2 °F 26.6 °F 33.8 °F 94% 29.73 in 5.0 mi North 12.7 mph 18.4 mph N/A Rain Light Rain
10:12 AM 35.2 °F 26.6 °F 33.8 °F 94% 29.74 in 4.0 mi North 12.7 mph 19.6 mph N/A Rain Light Rain
10:33 AM 35.2 °F 26.6 °F 34.0 °F 95% 29.75 in 4.0 mi North 12.7 mph 20.7 mph N/A Rain Light Rain
10:52 AM 35.2 °F 25.0 °F 34.0 °F 95% 29.75 in 4.0 mi NNW 17.3 mph 21.9 mph N/A Snow Light Snow
11:13 AM 35.1 °F 26.4 °F 34.0 °F 96% 29.75 in 3.0 mi NNW 12.7 mph 19.6 mph N/A Snow Light Snow
11:32 AM 35.2 °F 25.4 °F 34.2 °F 96% 29.75 in 4.0 mi NNW 16.1 mph 20.7 mph N/A Snow Light Snow
11:52 AM 35.2 °F 26.6 °F 34.0 °F 95% 29.75 in 7.0 mi NNW 12.7 mph 23.0 mph N/A   Overcast
12:12 PM 35.6 °F 25.2 °F 34.0 °F 94% 29.75 in 7.0 mi NNW 18.4 mph 21.9 mph N/A Rain Light Rain
12:33 PM 35.8 °F 26.1 °F 34.2 °F 94% 29.75 in 7.0 mi NNW 16.1 mph 26.5 mph N/A   Overcast
12:53 PM 36.5 °F 27.4 °F 33.8 °F 90% 29.75 in 10.0 mi NNW 15.0 mph 26.5 mph N/A   Overcast
1:13 PM 36.7 °F 27.2 °F 33.8 °F 89% 29.76 in 10.0 mi NNW 16.1 mph 21.9 mph N/A   Overcast
1:32 PM 36.9 °F 27.5 °F 34.0 °F 89% 29.76 in 7.0 mi NNW 16.1 mph 25.3 mph N/A   Overcast
1:53 PM 36.9 °F 28.2 °F 34.2 °F 90% 29.76 in 7.0 mi NNW 13.8 mph 25.3 mph N/A   Light Drizzle
2:13 PM 37.0 °F 27.4 °F 34.2 °F 89% 29.77 in 10.0 mi NNW 17.3 mph 21.9 mph N/A   Overcast
2:32 PM 37.0 °F 27.7 °F 34.0 °F 89% 29.77 in 10.0 mi NNW 16.1 mph 21.9 mph N/A   Overcast
2:53 PM 37.4 °F 28.5 °F 34.0 °F 87% 29.78 in 10.0 mi NNW 15.0 mph 21.9 mph N/A   Overcast
3:13 PM 37.4 °F 27.8 °F 33.8 °F 87% 29.79 in 10.0 mi NNW 17.3 mph 23.0 mph N/A   Overcast
3:32 PM 36.9 °F 27.5 °F 33.3 °F 87% 29.79 in 10.0 mi NNW 16.1 mph 20.7 mph N/A   Overcast
3:52 PM 36.5 °F 27.8 °F 33.4 °F 89% 29.79 in 10.0 mi NNW 13.8 mph - N/A   Overcast
4:12 PM 36.1 °F 27.7 °F 33.3 °F 89% 29.80 in 10.0 mi NNW 12.7 mph 19.6 mph N/A   Mostly Cloudy
4:32 PM 36.1 °F 26.9 °F 33.1 °F 89% 29.81 in 10.0 mi NNW 15.0 mph - N/A   Overcast
4:52 PM 35.8 °F 26.5 °F 32.9 °F 89% 29.82 in 10.0 mi NNW 15.0 mph 20.7 mph N/A   Overcast
5:12 PM 36.1 °F 26.5 °F 33.3 °F 89% 29.82 in 10.0 mi NNW 16.1 mph 21.9 mph N/A   Overcast
5:33 PM 36.1 °F 26.9 °F 33.1 °F 89% 29.82 in 10.0 mi NNW 15.0 mph 23.0 mph N/A   Overcast
5:52 PM 36.0 °F 26.0 °F 33.3 °F 90% 29.83 in 10.0 mi NNW 17.3 mph 24.2 mph N/A   Overcast
6:13 PM 36.0 °F 27.1 °F 33.3 °F 90% 29.84 in 10.0 mi NNW 13.8 mph 20.7 mph N/A   Overcast
6:32 PM 36.0 °F 27.5 °F 33.1 °F 89% 29.84 in 10.0 mi NNW 12.7 mph 23.0 mph N/A   Overcast
6:53 PM 35.8 °F 26.1 °F 32.9 °F 89% 29.84 in 10.0 mi NNW 16.1 mph - N/A   Overcast
7:12 PM 35.8 °F 26.9 °F 32.9 °F 89% 29.85 in 10.0 mi NNW 13.8 mph - N/A   Overcast
7:33 PM 35.6 °F 26.6 °F 32.9 °F 90% 29.86 in 10.0 mi NNW 13.8 mph 18.4 mph N/A   Overcast
7:52 PM 35.6 °F 27.5 °F 32.9 °F 90% 29.87 in 10.0 mi NNW 11.5 mph 18.4 mph N/A   Overcast
8:12 PM 35.6 °F 27.5 °F 33.1 °F 91% 29.87 in 10.0 mi NNW 11.5 mph - N/A   Overcast
8:33 PM 35.6 °F 28.0 °F 33.3 °F 91% 29.88 in 10.0 mi NW 10.4 mph - N/A   Overcast
8:53 PM 35.6 °F 27.5 °F 33.1 °F 91% 29.87 in 10.0 mi NNW 11.5 mph - N/A   Overcast
9:12 PM 35.6 °F 27.5 °F 33.3 °F 91% 29.88 in 10.0 mi NW 11.5 mph - N/A   Overcast
9:33 PM 35.6 °F 27.1 °F 32.9 °F 90% 29.87 in 10.0 mi NNW 12.7 mph - N/A   Overcast
9:53 PM 35.6 °F 27.5 °F 32.9 °F 90% 29.88 in 10.0 mi NNW 11.5 mph 18.4 mph N/A   Overcast
10:12 PM 35.6 °F 27.1 °F 33.1 °F 91% 29.88 in 10.0 mi NNW 12.7 mph - N/A   Overcast
10:33 PM 35.6 °F 27.5 °F 33.1 °F 91% 29.89 in 10.0 mi NNW 11.5 mph 19.6 mph N/A   Overcast
10:52 PM 35.6 °F 27.5 °F 32.9 °F 90% 29.90 in 10.0 mi NNW 11.5 mph - N/A   Overcast
11:12 PM 35.6 °F 28.0 °F 32.9 °F 90% 29.90 in 10.0 mi NW 10.4 mph - N/A   Overcast
11:33 PM 35.6 °F 28.6 °F 32.9 °F 90% 29.90 in 10.0 mi NW 9.2 mph - N/A   Overcast
11:53 PM 35.2 °F 28.1 °F 33.1 °F 92% 29.89 in 10.0 mi NW 9.2 mph - N/A   Overcast